When you browse on this site, cookies collect data to enhance your experience and personalize the content and advertising you see.
Visit our Privacy Policy to learn more. By continuing to use the site, you agree to this use of cookies and data.
  • In Lithuania
  • List of Countries
  • For 7 days
  • Water Temperature
  • Satellite Maps
  • Weather Map
  • Weather Widgets
  • user-avatar
    Login

    Hourly Weather Mingachevir

    Today, 17 June, Monday

    Time Temperature Precipitation Wind Pressure Humidity
    00:00 +28°C° 0 mm 2 mps 748 mmHg 49%
    01:00 +27°C° 0 mm 2 mps 748 mmHg 50%
    02:00 +27°C° 0 mm 1 mps 748 mmHg 52%
    03:00 +26°C° 0 mm 1 mps 748 mmHg 54%
    04:00 +27°C° 0 mm 1 mps 748 mmHg 53%
    05:00 +27°C° 0 mm 1 mps 748 mmHg 52%
    06:00 +28°C° 0 mm 1 mps 748 mmHg 51%
    07:00 +29°C° 0.2 mm 1 mps 748 mmHg 48%
    08:00 +30°C° 0.2 mm 1 mps 748 mmHg 46%
    09:00 +31°C° 0.2 mm 2 mps 748 mmHg 43%
    10:00 +34°C° 0 mm 2 mps 747 mmHg 40%
    11:00 +35°C° 0 mm 2 mps 747 mmHg 37%
    12:00 +36°C° 0 mm 2 mps 747 mmHg 34%
    13:00 +37°C° 0 mm 2 mps 747 mmHg 33%
    14:00 +37°C° 0 mm 2 mps 746 mmHg 31%
    15:00 +38°C° 0 mm 2 mps 746 mmHg 30%
    16:00 +37°C° 0 mm 3 mps 746 mmHg 32%
    17:00 +37°C° 0 mm 3 mps 746 mmHg 34%
    18:00 +36°C° 0 mm 3 mps 746 mmHg 36%
    19:00 +35°C° 0 mm 4 mps 747 mmHg 38%
    20:00 +33°C° 0 mm 4 mps 747 mmHg 40%
    21:00 +32°C° 0 mm 4 mps 748 mmHg 42%
    22:00 +30°C° 0 mm 4 mps 748 mmHg 44%
    23:00 +29°C° 0 mm 3 mps 748 mmHg 46%

    Tomorrow, 18 June, Tuesday

    Time Temperature Precipitation Wind Pressure Humidity
    00:00 +28°C° 0 mm 3 mps 748 mmHg 48%
    01:00 +27°C° 0.1 mm 2 mps 748 mmHg 51%
    02:00 +27°C° 0.1 mm 2 mps 748 mmHg 54%
    03:00 +26°C° 0.1 mm 1 mps 748 mmHg 56%
    04:00 +26°C° 0 mm 1 mps 749 mmHg 55%
    05:00 +27°C° 0 mm 1 mps 749 mmHg 54%
    06:00 +27°C° 0 mm 1 mps 749 mmHg 54%
    07:00 +28°C° 0 mm 1 mps 749 mmHg 50%
    08:00 +30°C° 0 mm 1 mps 749 mmHg 46%
    09:00 +31°C° 0 mm 2 mps 749 mmHg 42%
    10:00 +34°C° 0 mm 2 mps 748 mmHg 38%
    11:00 +35°C° 0 mm 3 mps 748 mmHg 34%
    12:00 +36°C° 0 mm 3 mps 748 mmHg 30%
    13:00 +37°C° 0 mm 4 mps 747 mmHg 29%
    14:00 +37°C° 0 mm 4 mps 747 mmHg 28%
    15:00 +39°C° 0 mm 5 mps 746 mmHg 27%
    16:00 +37°C° 0 mm 4 mps 747 mmHg 29%
    17:00 +37°C° 0 mm 4 mps 747 mmHg 31%
    18:00 +36°C° 0 mm 4 mps 747 mmHg 33%
    19:00 +34°C° 0.4 mm 5 mps 747 mmHg 38%
    20:00 +32°C° 0.4 mm 5 mps 748 mmHg 42%
    21:00 +29°C° 0.4 mm 6 mps 748 mmHg 47%
    22:00 +28°C° 0.5 mm 5 mps 748 mmHg 48%
    23:00 +28°C° 0.5 mm 5 mps 749 mmHg 48%

    Day after tomorrow, 19 June, Wednesday

    Time Temperature Precipitation Wind Pressure Humidity
    00:00 +27°C° 0.5 mm 4 mps 749 mmHg 49%
    01:00 +26°C° 0 mm 3 mps 749 mmHg 52%
    02:00 +26°C° 0 mm 2 mps 748 mmHg 54%
    03:00 +25°C° 0 mm 1 mps 748 mmHg 57%
    04:00 +25°C° 0 mm 2 mps 748 mmHg 58%
    05:00 +26°C° 0 mm 3 mps 748 mmHg 59%
    06:00 +26°C° 0 mm 3 mps 748 mmHg 61%
    07:00 +28°C° 0 mm 3 mps 748 mmHg 55%
    08:00 +29°C° 0 mm 3 mps 748 mmHg 49%
    09:00 +31°C° 0 mm 3 mps 748 mmHg 43%
    10:00 +33°C° 0 mm 3 mps 748 mmHg 38%
    11:00 +35°C° 0 mm 2 mps 748 mmHg 33%
    12:00 +36°C° 0 mm 2 mps 747 mmHg 27%
    13:00 +37°C° 0 mm 2 mps 747 mmHg 26%
    14:00 +37°C° 0 mm 3 mps 747 mmHg 25%
    15:00 +38°C° 0 mm 4 mps 747 mmHg 24%
    16:00 +37°C° 0 mm 4 mps 747 mmHg 26%
    17:00 +37°C° 0 mm 4 mps 747 mmHg 27%
    18:00 +36°C° 0 mm 4 mps 746 mmHg 28%
    19:00 +35°C° 0 mm 4 mps 747 mmHg 31%
    20:00 +33°C° 0 mm 4 mps 747 mmHg 33%
    21:00 +32°C° 0 mm 4 mps 748 mmHg 36%
    22:00 +30°C° 0 mm 4 mps 748 mmHg 38%
    23:00 +29°C° 0 mm 4 mps 748 mmHg 39%

    20 June, Thursday

    Time Temperature Precipitation Wind Pressure Humidity
    00:00 +28°C° 0 mm 3 mps 748 mmHg 41%
    01:00 +28°C° 0 mm 3 mps 748 mmHg 42%
    02:00 +27°C° 0 mm 3 mps 748 mmHg 43%
    03:00 +26°C° 0 mm 2 mps 748 mmHg 45%
    04:00 +27°C° 0 mm 2 mps 748 mmHg 44%
    05:00 +27°C° 0 mm 2 mps 748 mmHg 44%
    06:00 +28°C° 0 mm 2 mps 748 mmHg 43%
    07:00 +30°C° 0 mm 2 mps 747 mmHg 37%
    08:00 +32°C° 0 mm 2 mps 747 mmHg 31%
    09:00 +35°C° 0 mm 2 mps 747 mmHg 26%
    10:00 +36°C° 0 mm 3 mps 747 mmHg 24%
    11:00 +37°C° 0 mm 4 mps 747 mmHg 22%
    12:00 +38°C° 0 mm 4 mps 746 mmHg 20%
    13:00 +40°C° 0 mm 5 mps 746 mmHg 19%
    14:00 +40°C° 0 mm 5 mps 746 mmHg 19%
    15:00 +40°C° 0 mm 5 mps 745 mmHg 19%
    16:00 +40°C° 0 mm 5 mps 745 mmHg 21%
    17:00 +38°C° 0 mm 4 mps 745 mmHg 22%
    18:00 +38°C° 0 mm 4 mps 745 mmHg 24%
    19:00 +36°C° 0 mm 5 mps 746 mmHg 27%
    20:00 +34°C° 0 mm 6 mps 746 mmHg 30%
    21:00 +32°C° 0 mm 7 mps 747 mmHg 33%
    22:00 +30°C° 0 mm 6 mps 747 mmHg 33%
    23:00 +30°C° 0 mm 6 mps 747 mmHg 33%

    21 June, Friday

    Time Temperature Precipitation Wind Pressure Humidity
    00:00 +30°C° 0 mm 5 mps 747 mmHg 33%
    01:00 +29°C° 0 mm 5 mps 747 mmHg 35%
    02:00 +28°C° 0 mm 5 mps 747 mmHg 37%
    03:00 +27°C° 0 mm 4 mps 747 mmHg 39%
    04:00 +27°C° 0.3 mm 4 mps 747 mmHg 43%
    05:00 +27°C° 0.3 mm 3 mps 747 mmHg 46%
    06:00 +27°C° 0.3 mm 3 mps 747 mmHg 49%
    07:00 +29°C° 0.3 mm 3 mps 747 mmHg 44%
    08:00 +32°C° 0.3 mm 4 mps 747 mmHg 39%
    09:00 +33°C° 0.3 mm 5 mps 748 mmHg 33%
    10:00 +34°C° 0.1 mm 6 mps 747 mmHg 32%
    11:00 +35°C° 0.1 mm 6 mps 747 mmHg 30%
    12:00 +36°C° 0.1 mm 7 mps 747 mmHg 29%
    13:00 +36°C° 0 mm 7 mps 747 mmHg 28%
    14:00 +36°C° 0 mm 7 mps 747 mmHg 28%
    15:00 +38°C° 0 mm 6 mps 747 mmHg 28%
    16:00 +36°C° 0 mm 6 mps 747 mmHg 30%
    17:00 +35°C° 0 mm 6 mps 747 mmHg 32%
    18:00 +35°C° 0 mm 5 mps 747 mmHg 34%
    19:00 +34°C° 0 mm 6 mps 748 mmHg 35%
    20:00 +33°C° 0 mm 6 mps 748 mmHg 37%
    21:00 +30°C° 0 mm 6 mps 748 mmHg 38%
    22:00 +30°C° 0 mm 6 mps 749 mmHg 39%
    23:00 +29°C° 0 mm 5 mps 749 mmHg 41%

    22 June, Saturday

    Time Temperature Precipitation Wind Pressure Humidity
    00:00 +28°C° 0 mm 4 mps 749 mmHg 42%
    01:00 +28°C° 0 mm 4 mps 749 mmHg 43%
    02:00 +27°C° 0 mm 4 mps 749 mmHg 44%
    03:00 +27°C° 0 mm 4 mps 749 mmHg 45%
    04:00 +27°C° 0 mm 4 mps 750 mmHg 43%
    05:00 +28°C° 0 mm 4 mps 750 mmHg 41%
    06:00 +28°C° 0 mm 4 mps 750 mmHg 40%
    07:00 +30°C° 0 mm 6 mps 751 mmHg 35%
    08:00 +33°C° 0 mm 7 mps 751 mmHg 31%
    09:00 +34°C° 0 mm 8 mps 751 mmHg 27%
    10:00 +35°C° 0 mm 8 mps 751 mmHg 26%
    11:00 +37°C° 0 mm 9 mps 751 mmHg 25%
    12:00 +38°C° 0 mm 9 mps 750 mmHg 24%
    13:00 +38°C° 0 mm 9 mps 750 mmHg 24%
    14:00 +38°C° 0 mm 9 mps 750 mmHg 23%
    15:00 +38°C° 0 mm 9 mps 750 mmHg 23%
    16:00 +38°C° 0 mm 8 mps 750 mmHg 24%
    17:00 +37°C° 0 mm 8 mps 750 mmHg 25%
    18:00 +35°C° 0 mm 8 mps 750 mmHg 25%
    19:00 +34°C° 0 mm 7 mps 750 mmHg 28%
    20:00 +32°C° 0 mm 6 mps 751 mmHg 30%
    21:00 +30°C° 0 mm 6 mps 752 mmHg 32%
    22:00 +29°C° 0 mm 6 mps 752 mmHg 34%
    23:00 +29°C° 0 mm 6 mps 752 mmHg 37%
    Show more